FENGYUN 1C DEB, 29819

Orbit data source: Space-Track

FENGYUN 1C DEB, 29819 is space debris in SSO originally from a launch on Mon, 10 May 1999 UTC launched from the Taiyaun Space Center, China (TSC). Fengyun 1C debris stems from the Chinese weather satellite Fengyun-1C, which was intentionally destroyed by a Chinese anti-satellite missile in 2007. This event dramatically increased the amount of space debris, with thousands of trackable fragments posing hazards to satellites and human spaceflight. The Fengyun 1C debris cloud has become a focal point in discussions about space sustainability and the need for international regulations to prevent the creation of new debris.

Loading next visibility...
Identifier
29819, 1999-025DM
Orbit
SSO
Country
Flag of CNCN / PRC
Related business
Manufacturer
Unknown
Mission
Spacecraft
Bus & Motor
Unknown
Mass
Unknown
Launch date (UTC)
1999-05-10 (27 years ago)
Launch vehicle
Unknown
Launch site
Taiyaun Space Center, China (TSC)
Object type
Payload
Rocket body
Debris
Shape & HBR
Unknown shape, 0.1 m
Radar Cross Section
Small (<0.1 m²)

Expand to show TLE details & history
Last TLE update: 14 hours ago

TLE from 14 hours ago
0 FENGYUN 1C DEB
1 29819U 99025DM  26145.93310218  .00000354  00000-0  22057-3 0  9990
2 29819  98.7502 128.1353 0190050 328.1149  84.5234 14.02391524989214
Epoch: 2026-05-25T22:23Z
TLE epoch observation values (Epoch: 2026-05-25T22:23:40.028Z)
Latitude
53.97545°
Longitude
-103.44966°
Altitude
883.785 km
Speed
7.421 km/s
True Right ascension
07h 43m 55s
True Declination
53° 48' 52"
Sunlit
Object was in daylight at epoch
Visualization orbit readout
Latitude
Unknown
Longitude
Unknown
Altitude
Unknown
Speed
Unknown
Apparent Right ascension
Unknown
Apparent Declination
Unknown
Sunlit
N/A
Visualization observer readout
Local Sidereal Time
21:31:20
Azimuth
Unknown
Elevation
Unknown
Doppler factor
Unknown
Orbital elements
Apogee altitude
1,020.7 km
Perigee altitude
744.716 km
Semi-major axis
7,260.845 km
Eccentricity
0.01901
Inclination
98.7502°
RAAN
128.1353°
Arg. of periapsis
328.1149°
True anomaly
86.69568°
Mean anomaly
84.5234°
Eccentric anomaly
85.60911°
Mean motion
3.50802 °/min
Orbital period
102.62 mins
BSTAR
0.00022057
Loading maneuver chart data...
Computing Atmospheric mass density...
Loading historical data...
Loading historical data...
Loading historical data...
Loading historical data...
Loading historical data...
Loading historical data...
Loading historical data...

Documentation

Showing up to 5 results
|